Tracking 28793 objects as of 20-Apr-2024
HD Live streaming from Space Station
objects crossing your sky now

ARIANE 5 DEB (SYLDA)

Track ARIANE 5 DEB (SYLDA) now!
10-day predictions


NORAD ID: 43273
Int'l Code: 2018-033C
Perigee: 318.4 km
Apogee: 17,697.9 km
Inclination: 2.8 °
Period: 316.3 minutes
Semi major axis: 15379 km
RCS: Unknown
Launch date: April 5, 2018
Source: France (FR)
Launch site: FRENCH GUIANA (FRGUI)

Note: This is SATELLITE DEBRIS
Your satellite tracking list
Your tracking list is empty




NASA's NSSDC Master Catalog

Two Line Element Set (TLE):
1 43273U 18033C   24111.21315360  .00023881  00000-0  63595-2 0  9996
2 43273   2.8016 315.5426 5650316 221.5460  77.4867  4.55202036 72465
Source of the keplerian elements: AFSPC